Location: L�Ave Maria
(50.7161°N, 1.5911°E)
Time: 23:15:18
(UTC+00:00)

Nadezhda 3 Rocket - Pass Details

Date: 10 July 2020
Orbit: 956 x 1000 km, 82.9° (Epoch: 14 August)

Event Time Altitude Azimuth Distance (km) Brightness Sun altitude
Rises 21:40:50 0° 350° (N) 3,735 8.5 -11.1°
Reaches altitude 10° 21:43:23 10° 352° (N) 2,779 7.5 -11.3°
Maximum altitude 21:49:47 79° 79° (E) 1,018 4.1 -11.8°
Enters shadow 21:55:08 15° 166° (SSE) 2,390 5.4 -12.2°
